| time (UTC) | temp C | wind direction | speed KPH | gust KPH | rain 1hr cm | rain 24hr cm | rain mn cm | humidity % | barometer mb |
| 20260505224057 | 23 | 248 | 14.5 | 27.4 | 0.00 | 1.04 | 0.46 | 32 | 1011.1 |
| 20260505223017 | 23 | 270 | 17.7 | 32.2 | 0.00 | 1.04 | 0.46 | 34 | 1011.1 |
| 20260505222017 | 22 | 270 | 19.3 | 32.2 | 0.00 | 1.04 | 0.46 | 34 | 1011.1 |
| 20260505221017 | 23 | 270 | 24.1 | 41.8 | 0.00 | 1.04 | 0.46 | 33 | 1011.3 |
| 20260505220017 | 22 | 248 | 20.9 | 35.4 | 0.00 | 1.04 | 0.46 | 34 | 1011.3 |
| 20260505215037 | 22 | 248 | 19.3 | 38.6 | 0.00 | 1.04 | 0.46 | 35 | 1011.3 |
| 20260505214037 | 22 | 248 | 25.7 | 43.5 | 0.00 | 1.04 | 0.46 | 37 | 1011.5 |
| 20260505213017 | 23 | 248 | 24.1 | 40.2 | 0.00 | 1.04 | 0.46 | 38 | 1011.5 |
| 20260505212017 | 22 | 248 | 19.3 | 35.4 | 0.00 | 1.04 | 0.46 | 39 | 1011.4 |
| 20260505211017 | 22 | 248 | 17.7 | 32.2 | 0.00 | 1.04 | 0.46 | 42 | 1011.4 |
| 20260505210017 | 21 | 248 | 17.7 | 32.2 | 0.00 | 1.04 | 0.46 | 44 | 1011.6 |
| 20260505205037 | 21 | 270 | 8.0 | 19.3 | 0.00 | 1.04 | 0.46 | 47 | 1011.4 |
| 20260505204017 | 21 | 270 | 4.8 | 11.3 | 0.00 | 1.04 | 0.46 | 50 | 1011.5 |
| 20260505203017 | 21 | 270 | 9.7 | 17.7 | 0.00 | 1.04 | 0.46 | 53 | 1012.0 |
| 20260505202017 | 21 | 293 | 11.3 | 17.7 | 0.00 | 1.04 | 0.46 | 52 | 1012.0 |
| 20260505201017 | 21 | 270 | 11.3 | 19.3 | 0.00 | 1.04 | 0.46 | 51 | 1011.9 |
| 20260505200017 | 21 | 225 | 9.7 | 22.5 | 0.00 | 1.04 | 0.46 | 54 | 1012.0 |
| 20260505195017 | 21 | 225 | 11.3 | 19.3 | 0.00 | 1.04 | 0.46 | 51 | 1011.7 |
| 20260505194037 | 22 | 270 | 9.7 | 17.7 | 0.00 | 1.04 | 0.46 | 55 | 1012.1 |
| 20260505193037 | 21 | 293 | 9.7 | 16.1 | 0.00 | 1.04 | 0.46 | 56 | 1012.2 |
| 20260505192017 | 21 | 248 | 9.7 | 16.1 | 0.00 | 1.04 | 0.46 | 56 | 1012.2 |
| 20260505191017 | 21 | 270 | 12.9 | 22.5 | 0.00 | 1.04 | 0.46 | 56 | 1012.4 |
| 20260505190017 | 21 | 248 | 4.8 | 11.3 | 0.00 | 1.04 | 0.46 | 56 | 1012.4 |
| 20260505185017 | 21 | 270 | 12.9 | 20.9 | 0.00 | 1.04 | 0.46 | 55 | 1012.7 |
| 20260505184017 | 20 | 225 | 6.4 | 17.7 | 0.00 | 1.04 | 0.46 | 59 | 1012.7 |
| 20260505183017 | 20 | 315 | 3.2 | 8.0 | 0.00 | 1.04 | 0.46 | 59 | 1012.7 |
| 20260505182017 | 20 | 293 | 3.2 | 8.0 | 0.00 | 1.04 | 0.46 | 59 | 1012.9 |
| 20260505181017 | 20 | 315 | 3.2 | 8.0 | 0.00 | 1.04 | 0.46 | 62 | 1012.9 |
| 20260505180017 | 20 | 203 | 6.4 | 11.3 | 0.00 | 1.04 | 0.46 | 61 | 1013.2 |
| 20260505175017 | 20 | 248 | 4.8 | 12.9 | 0.00 | 1.04 | 0.46 | 66 | 1013.3 |
| 20260505174017 | 18 | 270 | 1.6 | 6.4 | 0.00 | 1.04 | 0.46 | 70 | 1013.0 |
| 20260505173016 | 18 | 180 | 4.8 | 9.7 | 0.00 | 1.04 | 0.46 | 70 | 1012.9 |
| 20260505172017 | 17 | 203 | 3.2 | 6.4 | 0.00 | 1.04 | 0.46 | 73 | 1012.9 |
| 20260505171017 | 17 | 248 | 1.6 | 4.8 | 0.00 | 1.04 | 0.46 | 76 | 1012.7 |
| 20260505170017 | 16 | 248 | 3.2 | 8.0 | 0.00 | 1.04 | 0.46 | 79 | 1012.6 |
| 20260505165017 | 16 | 248 | 1.6 | 4.8 | 0.00 | 1.04 | 0.46 | 83 | 1012.3 |
| 20260505164017 | 16 | 248 | 4.8 | 9.7 | 0.00 | 1.04 | 0.46 | 84 | 1012.5 |
| 20260505163017 | 15 | 225 | 4.8 | 9.7 | 0.00 | 1.04 | 0.46 | 88 | 1012.4 |
| 20260505162017 | 15 | 225 | 1.6 | 4.8 | 0.00 | 1.04 | 0.46 | 90 | 1012.5 |
| 20260505161016 | 15 | 225 | 1.6 | 3.2 | 0.00 | 1.04 | 0.46 | 90 | 1012.2 |
| 20260505153017 | 15 | 180 | 1.6 | 3.2 | 0.00 | 1.04 | 0.46 | 93 | 1011.9 |
| 20260505152016 | 15 | 0.0 | 0.0 | 0.00 | 1.04 | 0.46 | 93 | 1011.8 | |
| 20260505151016 | 14 | 315 | 1.6 | 4.8 | 0.00 | 1.04 | 0.46 | 93 | 1011.7 |
| 20260505125016 | 13 | 0.0 | 3.2 | 0.03 | 1.04 | 0.46 | 93 | 1011.3 | |
| 20260505124016 | 13 | 203 | 1.6 | 8.0 | 0.03 | 1.04 | 0.46 | 93 | 1011.3 |
| 20260505123016 | 13 | 0.0 | 0.0 | 0.00 | 1.02 | 0.43 | 92 | 1010.9 | |
| 20260505122016 | 13 | 0.0 | 0.0 | 0.00 | 1.02 | 0.43 | 92 | 1010.9 | |
| 20260505121016 | 13 | 0.0 | 3.2 | 0.03 | 1.02 | 0.43 | 92 | 1010.7 | |
| 20260505120017 | 13 | 0.0 | 3.2 | 0.03 | 1.02 | 0.43 | 92 | 1011.0 | |
| 20260505115016 | 13 | 338 | 1.6 | 4.8 | 0.05 | 1.02 | 0.43 | 92 | 1011.2 |
| 20260505114016 | 13 | 135 | 4.8 | 8.0 | 0.05 | 1.02 | 0.43 | 92 | 1011.1 |
| 20260505113016 | 13 | 158 | 6.4 | 11.3 | 0.05 | 1.02 | 0.43 | 92 | 1012.0 |
| 20260505112016 | 13 | 158 | 4.8 | 9.7 | 0.08 | 1.02 | 0.43 | 92 | 1011.7 |
| 20260505091017 | 13 | 90 | 3.2 | 6.4 | 0.13 | 0.84 | 0.25 | 90 | 1014.4 |
| 20260505090016 | 14 | 90 | 1.6 | 4.8 | 0.10 | 0.81 | 0.23 | 91 | 1014.8 |
| 20260505084036 | 13 | 0.0 | 0.0 | 0.13 | 0.79 | 0.20 | 91 | 1015.4 | |
| 20260505083036 | 13 | 0.0 | 0.0 | 0.13 | 0.76 | 0.18 | 91 | 1015.4 | |
| 20260505081016 | 14 | 0.0 | 0.0 | 0.13 | 0.71 | 0.13 | 91 | 1015.9 | |
| 20260505080016 | 14 | 0.0 | 0.0 | 0.13 | 0.71 | 0.13 | 91 | 1015.9 | |
| 20260505075016 | 14 | 0.0 | 0.0 | 0.10 | 0.69 | 0.10 | 90 | 1016.1 | |
| 20260505074016 | 14 | 0.0 | 0.0 | 0.10 | 0.66 | 0.08 | 90 | 1016.0 | |
| 20260505073016 | 14 | 0.0 | 4.8 | 0.08 | 0.64 | 0.05 | 89 | 1016.0 | |
| 20260505072016 | 14 | 135 | 4.8 | 8.0 | 0.08 | 0.61 | 0.03 | 89 | 1015.9 |
| 20260505071016 | 14 | 158 | 1.6 | 6.4 | 0.08 | 0.58 | 0.00 | 90 | 1015.8 |
| 20260505070016 | 14 | 0.0 | 1.6 | 0.08 | 0.58 | 0.58 | 90 | 1015.4 | |
| 20260505065016 | 14 | 180 | 3.2 | 6.4 | 0.08 | 0.58 | 0.58 | 89 | 1015.4 |
| 20260505064016 | 14 | 0.0 | 3.2 | 0.08 | 0.56 | 0.56 | 89 | 1015.2 | |
| 20260505063016 | 15 | 0.0 | 3.2 | 0.08 | 0.56 | 0.56 | 90 | 1015.3 | |
| 20260505062036 | 14 | 0.0 | 0.0 | 0.05 | 0.53 | 0.53 | 90 | 1015.4 | |
| 20260505061016 | 14 | 0.0 | 0.0 | 0.05 | 0.51 | 0.51 | 89 | 1015.4 | |
| 20260505060016 | 14 | 0 | 1.6 | 3.2 | 0.05 | 0.51 | 0.51 | 89 | 1015.3 |
| 20260505055016 | 14 | 338 | 4.8 | 8.0 | 0.05 | 0.51 | 0.51 | 88 | 1015.0 |
| 20260505054016 | 14 | 135 | 4.8 | 8.0 | 0.05 | 0.48 | 0.48 | 87 | 1015.1 |
| 20260505053016 | 14 | 135 | 9.7 | 14.5 | 0.05 | 0.48 | 0.48 | 87 | 1015.3 |
| 20260505052016 | 14 | 158 | 3.2 | 8.0 | 0.05 | 0.48 | 0.48 | 88 | 1015.3 |
| 20260505051016 | 15 | 180 | 4.8 | 9.7 | 0.03 | 0.46 | 0.46 | 88 | 1015.3 |
| 20260505041016 | 14 | 23 | 6.4 | 9.7 | 0.03 | 0.43 | 0.43 | 86 | 1014.9 |
| 20260505035016 | 13 | 113 | 1.6 | 4.8 | 0.08 | 0.43 | 0.43 | 84 | 1014.1 |
| 20260505034016 | 13 | 90 | 6.4 | 11.3 | 0.10 | 0.43 | 0.43 | 83 | 1013.8 |
| 20260505033016 | 13 | 45 | 11.3 | 19.3 | 0.13 | 0.43 | 0.43 | 83 | 1013.6 |
| 20260505032016 | 13 | 45 | 11.3 | 17.7 | 0.15 | 0.43 | 0.43 | 83 | 1013.9 |
| 20260505031016 | 13 | 23 | 4.8 | 8.0 | 0.13 | 0.41 | 0.41 | 84 | 1014.6 |
| 20260505030016 | 13 | 45 | 4.8 | 6.4 | 0.13 | 0.38 | 0.38 | 84 | 1015.0 |
| 20260505025056 | 14 | 0.0 | 4.8 | 0.15 | 0.36 | 0.36 | 84 | 1015.0 | |
| 20260505024036 | 14 | 0 | 1.6 | 4.8 | 0.15 | 0.33 | 0.33 | 83 | 1014.8 |
| 20260505023016 | 14 | 338 | 3.2 | 8.0 | 0.13 | 0.30 | 0.30 | 82 | 1014.7 |
| 20260505022036 | 15 | 158 | 1.6 | 4.8 | 0.13 | 0.28 | 0.28 | 80 | 1014.9 |
| 20260505021036 | 15 | 270 | 1.6 | 8.0 | 0.13 | 0.28 | 0.28 | 78 | 1014.7 |
| 20260505020016 | 15 | 293 | 1.6 | 4.8 | 0.13 | 0.25 | 0.25 | 81 | 1014.5 |
| 20260505015016 | 15 | 180 | 3.2 | 6.4 | 0.10 | 0.20 | 0.20 | 80 | 1014.4 |
| 20260505014016 | 16 | 0.0 | 4.8 | 0.08 | 0.18 | 0.18 | 79 | 1014.3 | |
| 20260505013016 | 16 | 0.0 | 0.0 | 0.10 | 0.18 | 0.18 | 81 | 1013.5 | |
| 20260505012016 | 16 | 0.0 | 0.0 | 0.10 | 0.15 | 0.15 | 80 | 1013.2 | |
| 20260505011016 | 16 | 0.0 | 0.0 | 0.15 | 0.15 | 0.15 | 80 | 1012.9 | |
| 20260505010016 | 16 | 0.0 | 4.8 | 0.13 | 0.13 | 0.13 | 76 | 1012.9 | |
| 20260505005016 | 16 | 113 | 1.6 | 9.7 | 0.10 | 0.10 | 0.10 | 75 | 1013.1 |
| 20260505004016 | 17 | 135 | 9.7 | 12.9 | 0.10 | 0.10 | 0.10 | 72 | 1013.3 |
| 20260505003016 | 17 | 0.0 | 3.2 | 0.08 | 0.08 | 0.08 | 70 | 1013.5 | |
| 20260505002016 | 18 | 23 | 1.6 | 6.4 | 0.05 | 0.05 | 0.05 | 61 | 1012.9 |
| 20260505001016 | 18 | 315 | 3.2 | 9.7 | 0.00 | 0.00 | 0.00 | 57 | 1012.8 |
| 20260505000016 | 18 | 23 | 11.3 | 22.5 | 0.00 | 0.00 | 0.00 | 55 | 1012.5 |
| 20260504235016 | 20 | 338 | 12.9 | 25.7 | 0.00 | 0.00 | 0.00 | 51 | 1012.8 |
| 20260504234016 | 21 | 293 | 19.3 | 37.0 | 0.00 | 0.00 | 0.00 | 43 | 1013.5 |
| 20260504233056 | 22 | 270 | 19.3 | 35.4 | 0.00 | 0.00 | 0.00 | 34 | 1013.4 |
| 20260504232016 | 23 | 293 | 17.7 | 27.4 | 0.00 | 0.00 | 0.00 | 26 | 1013.3 |
| 20260504231056 | 24 | 270 | 20.9 | 40.2 | 0.00 | 0.00 | 0.00 | 24 | 1013.3 |
| 20260504230016 | 25 | 270 | 14.5 | 24.1 | 0.00 | 0.00 | 0.00 | 22 | 1013.2 |
| 20260504225016 | 25 | 293 | 9.7 | 19.3 | 0.00 | 0.00 | 0.00 | 21 | 1013.0 |